Amarillo, TX

7:16 PM CDT on September 16, 2019 (GMT -0500)
Amarillo International

Weather History for KAMA - May, 2019

Change the Weather History Date:

Friday, May 31, 2019

  Actual Average Record
Temperature  
Mean Temperature 66 °F 70 °F  
Max Temperature 79 °F 84 °F 100 °F (1953)
Min Temperature 52 °F 57 °F 44 °F (1983)
Degree Days  
Heating Degree Days 0 1  
Month to date heating degree days 119 83  
Since 1 July heating degree days 4102 4171  
Cooling Degree Days 1 6  
Month to date cooling degree days 46 104  
Year to date cooling degree days 62 125  
Growing Degree Days 16 (Base 50)    
Moisture  
Dew Point 55 °F    
Average Humidity 70    
Maximum Humidity 93    
Minimum Humidity 47    
Precipitation  
Precipitation 0.03 in 0.11 in 3.40 in (1988)
Month to date precipitation 3.69 2.29  
Year to date precipitation 7.78 6.36  
Snow  
Snow 0.00 in 0.00 in T in (2005)
Month to date snowfall 0.0 0.2  
Since 1 July snowfall 8.1 17.8  
Snow Depth 0.00 in    
Sea Level Pressure  
Sea Level Pressure 29.97 in    
Wind  
Wind Speed 9 mph (SW)    
Max Wind Speed 24 mph    
Max Gust Speed 30 mph    
Visibility 10 miles    
Events Rain    
T = Trace of Precipitation, MM = Missing Value Source: NWS Daily Summary

Daily Weather History Graph

Daily Weather History Graph

Search for Another Location

Airport or City:

Astronomy

May. 31, 2019 Rise Set
Actual Time 6:33 AM CDT 8:55 PM CDT
Civil Twilight 6:04 AM CDT 9:24 PM CDT
Nautical Twilight 5:28 AM CDT 10:00 PM CDT
Astronomical Twilight 4:49 AM CDT 10:40 PM CDT
Moon 4:59 AM CDT (5/31) 6:14 PM CDT (5/31)
Length of Visible Light 15h 20m
Length of Day
14h 21m
Waning Crescent, 8% of the Moon is Illuminated
May 31
Waning Crescent
Jun 3
New
Jun 10
First Quarter
Jun 17
Full
Jun 25
Last Quarter

Hourly Weather History & Observations

Time (CDT) Temp. Dew Point Humidity Pressure Visibility Wind Dir Wind Speed Gust Speed Precip Events Conditions
12:53 AM 55.9 °F 53.1 °F 90% 30.01 in 10.0 mi NW 3.5 mph - 0.00 in   Scattered Clouds
1:53 AM 57.0 °F 53.1 °F 87% 30.03 in 10.0 mi WSW 18.4 mph - 0.01 in Rain Light Rain
2:53 AM 55.9 °F 52.0 °F 87% 30.00 in 10.0 mi SW 17.3 mph - 0.01 in Rain Light Rain
3:14 AM 57.0 °F 51.1 °F 81% 30.07 in 10.0 mi SSE 5.8 mph - 0.01 in Rain Light Rain
3:53 AM 55.0 °F 48.9 °F 80% 29.95 in 10.0 mi Variable 4.6 mph - 0.01 in   Clear
4:53 AM 54.0 °F 48.0 °F 80% 29.98 in 10.0 mi WNW 5.8 mph - N/A   Clear
5:53 AM 53.1 °F 50.0 °F 89% 29.99 in 10.0 mi WNW 10.4 mph - N/A   Clear
6:53 AM 52.0 °F 48.9 °F 89% 30.01 in 10.0 mi West 4.6 mph - N/A   Clear
7:53 AM 57.0 °F 51.1 °F 81% 30.02 in 10.0 mi West 6.9 mph - N/A   Clear
8:53 AM 63.0 °F 53.1 °F 70% 30.02 in 10.0 mi WSW 4.6 mph - N/A   Clear
9:53 AM 66.0 °F 55.0 °F 68% 30.04 in 10.0 mi SSW 8.1 mph - N/A   Clear
10:53 AM 69.1 °F 55.9 °F 63% 30.04 in 10.0 mi WSW 10.4 mph - N/A   Clear
11:53 AM 71.1 °F 57.0 °F 61% 30.03 in 10.0 mi SSW 10.4 mph - N/A   Clear
12:53 PM 73.9 °F 55.9 °F 53% 30.01 in 10.0 mi West 9.2 mph - N/A   Clear
1:53 PM 75.0 °F 57.0 °F 53% 29.99 in 10.0 mi SSW 12.7 mph - N/A   Partly Cloudy
2:53 PM 77.0 °F 57.0 °F 50% 29.96 in 10.0 mi WSW 11.5 mph - N/A   Clear
3:53 PM 77.0 °F 55.9 °F 48% 29.94 in 10.0 mi SSW 4.6 mph - N/A   Scattered Clouds
4:53 PM 78.1 °F 57.9 °F 50% 29.92 in 10.0 mi SSW 8.1 mph - N/A   Partly Cloudy
5:53 PM 79.0 °F 57.9 °F 48% 29.90 in 10.0 mi SSW 10.4 mph - N/A   Clear
6:53 PM 79.0 °F 57.0 °F 47% 29.88 in 10.0 mi SSW 8.1 mph - N/A   Clear
7:53 PM 79.0 °F 57.0 °F 47% 29.86 in 10.0 mi SE 3.5 mph - N/A   Clear
8:53 PM 73.9 °F 57.0 °F 55% 29.86 in 10.0 mi ESE 5.8 mph - N/A   Clear
9:53 PM 69.1 °F 57.0 °F 65% 29.88 in 10.0 mi SE 11.5 mph - N/A   Clear
10:53 PM 68.0 °F 57.9 °F 70% 29.90 in 10.0 mi SE 11.5 mph - N/A   Clear
11:53 PM 68.0 °F 59.0 °F 73% 29.91 in 10.0 mi SSE 13.8 mph - N/A   Clear